Weather History for Farnborough, United Kingdom

Change the Weather History Date:

Sunday, October 28, 2012

  Actual Average Record
Temperature  
Mean Temperature 39 °F -  
Max Temperature 48 °F - - ()
Min Temperature 30 °F - - ()
Degree Days  
Heating Degree Days 26    
Moisture  
Dew Point 40 °F    
Average Humidity 84    
Maximum Humidity 90    
Minimum Humidity 72    
Precipitation  
Precipitation 0.01 in - - ()
Sea Level Pressure  
Sea Level Pressure 29.96 in    
Wind  
Wind Speed 8 mph ()    
Max Wind Speed 14 mph    
Max Gust Speed -    
Visibility 7.1 miles    
Events Rain    
T = Trace of Precipitation, MM = Missing Value Source: Averaged Metar Reports

Daily Weather History Graph

Daily Weather History Graph

Search for Another Location

Airport:

Trip Planner

Search our weather history database for the weather conditions in past years. The results will help you decide how hot, cold, wet, or windy it might be!

Date:

Astronomy

Oct. 28, 2012 Rise Set
Actual Time 6:49 AM GMT 4:43 PM GMT
Civil Twilight 6:14 AM GMT 5:17 PM GMT
Nautical Twilight 5:35 AM GMT 5:56 PM GMT
Astronomical Twilight 4:57 AM GMT 6:35 PM GMT
Moon 3:55 PM GMT (10/28) 5:23 AM GMT (10/28)
Length of Visible Light 11h 02m
Length of Day
9h 53m
Waxing Gibbous, 98% of the Moon is Illuminated
Oct 28
Waxing Gibbous
Oct 29
Full
Nov 7
Last Quarter
Nov 13
New
Nov 20
First Quarter

Hourly Weather History & Observations

Time (GMT) Temp. Windchill Dew Point Humidity Pressure Visibility Wind Dir Wind Speed Gust Speed Precip Events Conditions
12:50 AM 32 °F - 29 °F 82% 30.17 in 13 mi West 2.3 mph - -  
2:50 AM 30 °F - 28 °F 90% 30.13 in 18 mi WNW 2.3 mph - -   Scattered Clouds
7:50 AM 39.2 °F 33.6 °F 35.6 °F 87% 30.04 in 6.2 mi WSW 8.1 mph - N/A   Scattered Clouds
8:20 AM 41.0 °F 34.7 °F 35.6 °F 81% 30.04 in 6.2 mi WSW 10.4 mph - N/A   Mostly Cloudy
8:50 AM 42 °F - 36 °F 72% 30.03 in 47 mi WSW 9.2 mph - -   Overcast
8:50 AM 41.0 °F 34.7 °F 35.6 °F 81% 30.04 in 6.2 mi WSW 10.4 mph - N/A   Mostly Cloudy
9:20 AM 42.8 °F 36.6 °F 37.4 °F 81% 30.01 in 6.2 mi WSW 11.5 mph - N/A   Scattered Clouds
9:50 AM 42.8 °F 36.6 °F 37.4 °F 81% 30.01 in 6.2 mi WSW 11.5 mph - N/A   Scattered Clouds
10:20 AM 44.6 °F 38.4 °F 39.2 °F 81% 30.01 in 6.2 mi WSW 12.7 mph - N/A   Partly Cloudy
10:50 AM 44.6 °F 38.1 °F 39.2 °F 81% 30.01 in 6.2 mi WSW 13.8 mph - N/A   Partly Cloudy
11:20 AM 44.6 °F 38.1 °F 39.2 °F 81% 29.98 in 6.2 mi WSW 13.8 mph - N/A   Mostly Cloudy
11:50 AM 45 °F - 40 °F 78% 29.98 in 37 mi WSW 9.2 mph - -   Mostly Cloudy
11:50 AM 44.6 °F 38.4 °F 41.0 °F 87% 29.98 in 6.2 mi WSW 12.7 mph - N/A   Mostly Cloudy
12:20 PM 44.6 °F 38.4 °F 41.0 °F 87% 29.98 in 6.2 mi WSW 12.7 mph - N/A   Scattered Clouds
12:50 PM 44.6 °F 38.8 °F 41.0 °F 87% 29.95 in 6.2 mi SW 11.5 mph - N/A   Scattered Clouds
1:20 PM 46.4 °F 41.1 °F 42.8 °F 87% 29.95 in 6.2 mi WSW 11.5 mph - N/A   Scattered Clouds
1:50 PM 46.4 °F 41.1 °F 42.8 °F 87% 29.92 in 6.2 mi WSW 11.5 mph - N/A   Scattered Clouds
2:20 PM 46.4 °F 41.1 °F 42.8 °F 87% 29.92 in 6.2 mi WSW 11.5 mph - N/A   Scattered Clouds
2:50 PM 48 °F - 44 °F 80% 29.92 in 28 mi WSW 9.2 mph - -   Scattered Clouds
2:50 PM 48.2 °F - 42.8 °F 82% 29.92 in 6.2 mi WSW 10.4 mph - N/A   Scattered Clouds
3:20 PM 48.2 °F - 44.6 °F 87% 29.92 in 6.2 mi SW 11.5 mph - N/A   Mostly Cloudy
3:50 PM 48.2 °F - 44.6 °F 87% 29.92 in 6.2 mi WSW 11.5 mph - N/A   Mostly Cloudy
4:20 PM 48.2 °F - 42.8 °F 82% 29.89 in 6.2 mi WSW 10.4 mph - N/A   Mostly Cloudy
4:50 PM 48.2 °F - 44.6 °F 87% 29.89 in 6.2 mi WSW 10.4 mph - N/A   Partly Cloudy
5:20 PM 48.2 °F - 42.8 °F 82% 29.89 in - WSW 9.2 mph - N/A   Clear
5:50 PM 47 °F - 44 °F 83% 29.91 in 13 mi WSW 9.2 mph - -   Overcast
5:50 PM 46.4 °F 41.5 °F 42.8 °F 87% 29.89 in 6.2 mi WSW 10.4 mph - N/A Rain Light Rain
6:20 PM 46.4 °F 41.1 °F 42.8 °F 87% 29.89 in 6.2 mi WSW 11.5 mph - N/A Rain Light Rain
6:50 PM 46.4 °F 41.5 °F 42.8 °F 87% 29.89 in 6.2 mi WSW 10.4 mph - N/A Rain Light Rain
7:20 PM 46.4 °F 41.5 °F 42.8 °F 87% 29.89 in 6.2 mi SW 10.4 mph - N/A Rain Light Rain
7:50 PM 46.4 °F 41.5 °F 42.8 °F 87% 29.89 in 6.2 mi WSW 10.4 mph - N/A Rain Light Rain
8:50 PM 46 °F - 43 °F 87% 29.89 in 28 mi WSW 9.2 mph - -   Scattered Clouds